Domov               UVHVVR             MKGP            O straneh              
ZDRAVSTVENO VARSTVO RASTLIN
  MREŽA AGROMET. POSTAJ
 ► PROGNOSTIČNA OBVESTILA
AGROMETEOROLOŠKI PODATKI -
ARSO
OBVLADOVANJE TVEGANJ ZARADI
NEUGODNIH VREMENSKIH RAZMER
  ► NARAVNE NESREČE
  ► SUŠA/MOČA
  ► NAMAKANJE
  ► ŽLED (gozdarstvo)
KARTOGRAFSKI PRIKAZI
SPLETNE POVEZAVE
PROJEKTI IN PUBLIKACIJE

AGROMETEOROLOŠKA MREŽA: VREMENSKE POSTAJE IN FENOLOŠKA OPAZOVANJA

Pregled podatkov za lokacijo Gabrovka, meteorološka postaja 38756

Pregled senzorjev na lokaciji

ID Ime Zadnja
vrednost
Datum
zadnje
spremembe
Tip
senzorja
2042 Omočenost lista (U) 0 U 21.8.2017 14:30 A730WET
2045 Padavine 0.2 mm (mm) 0 mm 21.8.2017 14:30 Rain-O-Matic
2064 Temperatura 2 m ( °C) 21,05 °C 21.8.2017 14:30 50YA
2065 Relativna vlaga 2 m (% RH) 45,49 % RH 21.8.2017 14:30 50YA

Pregled podatkov zadnjih 24 ur

Zap.
št.
Datum in čas Gabrovka
Omočenost
lista
Padavine
0.2
mm
Relativna
vlaga
2
m
Temperatura
2
m
0 21.8.2017 13:30 0 0 45,49 21,05
1 21.8.2017 13:00 0 0 46,47 21,12
2 21.8.2017 12:30 0 0 47,18 20,85
3 21.8.2017 12:00 0 0 47,3 20,83
4 21.8.2017 11:30 0 0 48,94 20,32
5 21.8.2017 11:00 0 0 49,94 20,05
6 21.8.2017 10:30 0 0 50,06 20,17
7 21.8.2017 10:00 0 0 51,58 19,8
8 21.8.2017 09:30 0 0 51,77 19,44
9 21.8.2017 09:00 0 0 54,11 18,56
10 21.8.2017 08:30 0 0 56,95 18,05
11 21.8.2017 08:00 0 0 60,98 17,17
12 21.8.2017 07:30 0 0 58,24 16,65
13 21.8.2017 07:00 0 0 59,76 16,48
14 21.8.2017 06:30 0 0 69,3 14,36
15 21.8.2017 06:00 0 0 73,97 12,8
16 21.8.2017 05:30 0 0 78,39 11,65
17 21.8.2017 05:00 0 0 77,97 11,82
18 21.8.2017 04:30 0 0 77,8 11,72
19 21.8.2017 04:00 0 0 76,61 11,75
20 21.8.2017 03:30 0 0 73,55 11,99
21 21.8.2017 03:00 0 0 66,74 12,8
22 21.8.2017 02:30 0 0 62,25 13,58
23 21.8.2017 02:00 0 0 63,83 13,5
24 21.8.2017 01:30 0 0 63,98 13,68
25 21.8.2017 01:00 0 0 63,17 14,11
26 21.8.2017 00:30 0 0 67,2 14,09
27 21.8.2017 00:00 0 0 66,96 14,53
28 20.8.2017 23:30 0 0 77,75 13,5
29 20.8.2017 23:00 0 0 74,55 14,09
30 20.8.2017 22:30 0 0 67,18 15,41
31 20.8.2017 22:00 0 0 68,91 15,26
32 20.8.2017 21:30 0 0 69,6 15,38
33 20.8.2017 21:00 0 0 63,1 16,65
34 20.8.2017 20:30 0 0 62,49 17,02
35 20.8.2017 20:00 0 0 62,86 17,19
36 20.8.2017 19:30 0 0 60,9 17,61
37 20.8.2017 19:00 0 0 60,27 17,9
38 20.8.2017 18:30 0 0 60,02 18,07
39 20.8.2017 18:00 0 0 56,83 18,53
40 20.8.2017 17:30 0 0 57,09 18,85
41 20.8.2017 17:00 0 0 57,85 19,39
42 20.8.2017 16:30 0 0 55,51 20,2
43 20.8.2017 16:00 0 0 52,31 20,88
© 2011 Ministrstvo za kmetijstvo, gozdarstvo in prehrano. Vse pravice pridržane.